Browse Search Popular Register Upload Rules User list Login:
Search:
Cathier
Username: Cathier
Date registered: 2015/01/05 17:06:14
Scenes: 33
Subscribers: 3
Comments: 26
Downloads by you: 1648
Title Author Rating Downloads Comments Date added
Model Steam Engine (no steam) Cathier 5 (1 vote) 1431 0 2017/06/29 22:04:29
Drawing with tracers (like a crt oscilloscope) Cathier 5 (1 vote) 115 0 2017/06/09 16:12:58
Helix gears Cathier 5 (1 vote) 154 1 2017/05/23 17:42:30
4-stroke single cylinder spring engine Cathier 5 (1 vote) 644 0 2017/05/21 11:17:03
Flywheel balancer Cathier 5 (1 vote) 98 0 2017/05/11 21:56:09
4-stroke engine simulation Cathier 5.6 (2 votes) 2960 1 2016/12/25 03:35:49
Tidal bulge demonstration Cathier 5 (1 vote) 198 0 2016/12/24 15:49:00
Angle doubler Cathier 5 (1 vote) 176 2 2016/12/22 21:30:42
Mouse following quadcopter drone (PID experiment) Cathier 5 (1 vote) 293 0 2016/12/16 21:37:52
PID Toy Cathier 5 (1 vote) 88 3 2016/12/13 16:22:57
8 cylinder radial spawn engine Cathier 5 (1 vote) 502 1 2016/03/13 00:51:44
Following eyes Cathier 5 (1 vote) 269 0 2016/03/12 14:28:19
The return of Inline 16 Monster version About 3100 HP Remade so it works now Cathier 5.6 (2 votes) 562 5 2016/03/11 00:15:25
For MysticalPenguin Cathier 5 (1 vote) 64 0 2016/03/10 20:17:06
Dyno with torque/rpm graph Cathier 5 (1 vote) 398 1 2016/03/10 18:42:19
Expanding spawn circle concept for spawn engines Cathier 5 (1 vote) 407 0 2016/03/10 15:43:47
Heavy 2 piston engine Cathier 5 (1 vote) 341 1 2015/09/15 01:22:00
Adaptable suspension concept Cathier 5 (1 vote) 247 1 2015/09/11 23:28:49
Inline 16 A.K.A. Absurdly long engine Updated version Cathier 5.6 (2 votes) 779 5 2015/09/11 22:09:53
Dear Aglodoo gurus Cathier 5 (1 vote) 157 2 2015/09/10 20:23:31
Simple rotary engine Cathier 6.1 (3 votes) 473 1 2015/09/06 10:25:44
Upgraded version of my spawn engine Cathier 5 (1 vote) 246 0 2015/08/27 17:57:11
Spawn engine powered truck Cathier 5.4 (2 votes) 564 1 2015/06/14 22:09:01
Single Piston Spawn Engine Cathier 5 (1 vote) 301 4 2015/06/09 16:46:05
Magnetic motor Cathier 5 (1 vote) 238 2 2015/02/03 19:30:45
show grid